Weather History for Fort Drum, NY

Change the Weather History Date:

Friday, March 22, 2013

  Actual Average Record
Temperature  
Mean Temperature 24 °F -  
Max Temperature 29 °F 36 °F 74 °F (2012)
Min Temperature 19 °F 22 °F 3 °F (2004)
Degree Days  
Heating Degree Days 41    
Moisture  
Dew Point 22 °F    
Average Humidity 90    
Maximum Humidity 100    
Minimum Humidity 58    
Precipitation  
Precipitation 0.02 in - - ()
Sea Level Pressure  
Sea Level Pressure 29.72 in    
Wind  
Wind Speed 6 mph (WSW)    
Max Wind Speed 16 mph    
Max Gust Speed 22 mph    
Visibility 7 miles    
Events Snow    
Averages and records for this station are not official NWS values.
T = Trace of Precipitation, MM = Missing Value Source: NWS Daily Summary

Daily Weather History Graph

Daily Weather History Graph

Search for Another Location

Airport:

Trip Planner

Search our weather history database for the weather conditions in past years. The results will help you decide how hot, cold, wet, or windy it might be!

Date:

Astronomy

Mar. 22, 2013 Rise Set
Actual Time 7:01 AM EDT 7:18 PM EDT
Civil Twilight 6:33 AM EDT 7:46 PM EDT
Nautical Twilight 5:59 AM EDT 8:20 PM EDT
Astronomical Twilight 5:24 AM EDT 8:55 PM EDT
Moon 2:34 PM EDT (3/22) 4:09 AM EDT (3/22)
Length of Visible Light 13h 13m
Length of Day
12h 16m
Waxing Gibbous, 77% of the Moon is Illuminated
Mar 22
Waxing Gibbous
Mar 27
Full
Apr 3
Last Quarter
Apr 10
New
Apr 18
First Quarter

Hourly Weather History & Observations

Time (EDT) Temp. Windchill Dew Point Humidity Pressure Visibility Wind Dir Wind Speed Gust Speed Precip Events Conditions
12:11 AM 23.0 °F 17.0 °F 23.0 °F 100% 29.68 in 10.0 mi SSE 4.6 mph - N/A   Overcast
12:21 AM 21.2 °F 14.9 °F 21.2 °F 100% 29.68 in 10.0 mi SSE 4.6 mph - N/A   Overcast
12:44 AM 23.0 °F 17.0 °F 23.0 °F 100% 29.68 in 6.0 mi South 4.6 mph - N/A   Scattered Clouds
12:49 AM 23.0 °F 17.0 °F 21.2 °F 93% 29.68 in 6.0 mi South 4.6 mph - N/A   Mostly Cloudy
12:52 AM 23.0 °F 15.8 °F 23.0 °F 100% 29.68 in 6.0 mi South 5.8 mph - N/A   Scattered Clouds
12:55 AM 23.2 °F 17.2 °F 22.8 °F 99% 29.68 in 6.0 mi South 4.6 mph - 0.00 in   Mostly Cloudy
1:04 AM 21.2 °F 13.6 °F 21.2 °F 100% 29.68 in 10.0 mi South 5.8 mph - N/A   Mostly Cloudy
1:11 AM 23.0 °F 15.8 °F 23.0 °F 100% 29.68 in 9.0 mi South 5.8 mph - N/A   Mostly Cloudy
1:17 AM 23.0 °F 14.7 °F 23.0 °F 100% 29.68 in 7.0 mi South 6.9 mph - N/A   Overcast
1:24 AM 23.0 °F 15.8 °F 21.2 °F 93% 29.68 in 7.0 mi South 5.8 mph - N/A   Overcast
1:26 AM 23.0 °F 17.0 °F 21.2 °F 93% 29.68 in 8.0 mi South 4.6 mph - N/A   Overcast
1:33 AM 21.2 °F 13.6 °F 19.4 °F 93% 29.68 in 10.0 mi SSE 5.8 mph - N/A   Overcast
1:35 AM 21.2 °F 13.6 °F 19.4 °F 93% 29.68 in 10.0 mi SSE 5.8 mph - N/A   Overcast
1:44 AM 19.4 °F 11.5 °F 19.4 °F 100% 29.67 in 10.0 mi SSE 5.8 mph - N/A   Overcast
1:45 AM 19.4 °F 11.5 °F 19.4 °F 100% 29.67 in 10.0 mi SSE 5.8 mph - N/A Snow Light Snow
1:47 AM 19.4 °F 11.5 °F 19.4 °F 100% 29.67 in 10.0 mi SSE 5.8 mph - N/A Snow Light Snow
1:54 AM 21.2 °F 13.6 °F 19.4 °F 93% 29.68 in 10.0 mi SSE 5.8 mph - N/A Snow Light Snow
1:55 AM 20.7 °F 13.0 °F 20.3 °F 99% 29.68 in 10.0 mi SSE 5.8 mph - 0.00 in Snow Light Snow
1:58 AM 21.2 °F 12.6 °F 21.2 °F 100% 29.68 in 10.0 mi SSE 6.9 mph - N/A Snow Light Snow
2:09 AM 21.2 °F 13.6 °F 21.2 °F 100% 29.67 in 10.0 mi SSE 5.8 mph - N/A   Overcast
2:11 AM 21.2 °F 13.6 °F 21.2 °F 100% 29.67 in 10.0 mi SSE 5.8 mph - N/A Snow Light Snow
2:15 AM 21.2 °F 14.9 °F 21.2 °F 100% 29.67 in 10.0 mi SSE 4.6 mph - N/A   Overcast
2:20 AM 21.2 °F 13.6 °F 21.2 °F 100% 29.67 in 10.0 mi SSE 5.8 mph - N/A   Overcast
2:23 AM 21.2 °F 14.9 °F 21.2 °F 100% 29.67 in 10.0 mi SSE 4.6 mph - N/A   Overcast
2:24 AM 21.2 °F 13.6 °F 21.2 °F 100% 29.67 in 10.0 mi SSE 5.8 mph - N/A   Overcast
2:25 AM 21.2 °F 13.6 °F 21.2 °F 100% 29.67 in 10.0 mi SSE 5.8 mph - N/A   Overcast
2:32 AM 23.0 °F 17.0 °F 21.2 °F 93% 29.67 in 10.0 mi SSE 4.6 mph - N/A   Overcast
2:55 AM 22.5 °F 16.3 °F 21.9 °F 98% 29.67 in 10.0 mi SSE 4.6 mph - 0.00 in Snow Light Snow
3:01 AM 23.0 °F 17.0 °F 21.2 °F 93% 29.67 in 10.0 mi SSE 4.6 mph - N/A Snow Light Snow
3:11 AM 23.0 °F 17.0 °F 23.0 °F 100% 29.67 in 10.0 mi SSE 4.6 mph - N/A Snow Light Snow
3:14 AM 23.0 °F 15.8 °F 23.0 °F 100% 29.67 in 10.0 mi SSE 5.8 mph - N/A Snow Light Snow
3:16 AM 23.0 °F 17.0 °F 23.0 °F 100% 29.67 in 10.0 mi SSE 4.6 mph - N/A Snow Light Snow
3:19 AM 23.0 °F 17.0 °F 23.0 °F 100% 29.67 in 10.0 mi South 4.6 mph - N/A Snow Light Snow
3:30 AM 23.0 °F 15.8 °F 23.0 °F 100% 29.67 in 10.0 mi South 5.8 mph - N/A Snow Light Snow
3:42 AM 23.0 °F 14.7 °F 23.0 °F 100% 29.66 in 10.0 mi South 6.9 mph - N/A Snow Light Snow
3:48 AM 23.0 °F 17.0 °F 23.0 °F 100% 29.66 in 6.0 mi South 4.6 mph - N/A Snow Light Snow
3:53 AM 23.0 °F 18.4 °F 23.0 °F 100% 29.66 in 2.5 mi SSW 3.5 mph - N/A Snow Light Snow
3:55 AM 23.4 °F 18.9 °F 23.0 °F 99% 29.66 in 2.5 mi SSW 3.5 mph - 0.00 in Snow Light Snow
3:56 AM 23.0 °F 18.4 °F 23.0 °F 100% 29.66 in 2.5 mi SSW 3.5 mph - N/A Snow Light Snow
3:57 AM 23.0 °F 18.4 °F 23.0 °F 100% 29.66 in 2.5 mi SW 3.5 mph - N/A Snow Light Snow
4:02 AM 23.0 °F 17.0 °F 23.0 °F 100% 29.66 in 3.0 mi SW 4.6 mph - N/A Snow Light Snow
4:18 AM 24.8 °F 19.1 °F 24.8 °F 100% 29.66 in 3.0 mi West 4.6 mph - N/A Snow Light Snow
4:22 AM 24.8 °F 19.1 °F 24.8 °F 100% 29.66 in 5.0 mi West 4.6 mph - N/A Snow Light Snow
4:26 AM 24.8 °F 17.9 °F 24.8 °F 100% 29.66 in 5.0 mi West 5.8 mph - N/A Snow Light Snow
4:32 AM 24.8 °F 19.1 °F 24.8 °F 100% 29.67 in 3.0 mi West 4.6 mph - N/A Snow Light Snow
4:40 AM 24.8 °F 17.9 °F 24.8 °F 100% 29.67 in 3.0 mi West 5.8 mph - N/A Snow Light Snow
4:44 AM 24.8 °F 16.9 °F 24.8 °F 100% 29.67 in 2.5 mi West 6.9 mph - N/A Snow Light Snow
4:47 AM 24.8 °F 17.9 °F 24.8 °F 100% 29.67 in 2.5 mi West 5.8 mph - N/A Snow Light Snow
4:48 AM 24.8 °F 19.1 °F 24.8 °F 100% 29.67 in 2.0 mi West 4.6 mph - N/A Snow Light Snow
4:52 AM 24.8 °F 17.9 °F 24.8 °F 100% 29.67 in 2.0 mi West 5.8 mph - N/A Snow Light Snow
4:53 AM 24.8 °F 19.1 °F 24.8 °F 100% 29.67 in 2.5 mi West 4.6 mph - N/A Snow Light Snow
4:54 AM 24.8 °F 17.9 °F 24.8 °F 100% 29.67 in 2.5 mi West 5.8 mph - N/A Snow Light Snow
4:55 AM 25.2 °F 17.3 °F 25.0 °F 99% 29.67 in 2.5 mi West 6.9 mph - 0.00 in Snow Light Snow
4:57 AM 24.8 °F 16.9 °F 24.8 °F 100% 29.67 in 3.0 mi West 6.9 mph - N/A Snow Light Snow
5:00 AM 24.8 °F 17.9 °F 24.8 °F 100% 29.67 in 4.0 mi West 5.8 mph - N/A Snow Light Snow
5:08 AM 24.8 °F 19.1 °F 24.8 °F 100% 29.67 in 5.0 mi West 4.6 mph - N/A Snow Light Snow
5:13 AM 24.8 °F 17.9 °F 24.8 °F 100% 29.67 in 5.0 mi West 5.8 mph - N/A Snow Light Snow
5:35 AM 24.8 °F 19.1 °F 24.8 °F 100% 29.68 in 4.0 mi West 4.6 mph - N/A Snow Light Snow
5:55 AM 25.0 °F 18.1 °F 24.8 °F 99% 29.68 in 4.0 mi West 5.8 mph - 0.00 in Snow Light Snow
6:55 AM 24.3 °F 18.4 °F 24.1 °F 99% 29.69 in 4.0 mi West 4.6 mph - 0.00 in Snow Light Snow
7:55 AM 24.3 °F 19.9 °F 24.1 °F 99% 29.70 in 2.5 mi West 3.5 mph - 0.00 in Snow Light Snow
7:56 AM 24.8 °F 20.5 °F 24.8 °F 100% 29.70 in 2.0 mi West 3.5 mph - N/A Snow Light Snow
7:57 AM 24.8 °F 19.1 °F 24.8 °F 100% 29.70 in 1.8 mi WNW 4.6 mph - N/A Snow Light Snow
7:59 AM 24.8 °F 20.5 °F 24.8 °F 100% 29.70 in 1.2 mi Variable 3.5 mph - N/A Snow Light Snow
8:13 AM 24.8 °F 17.9 °F 24.8 °F 100% 29.71 in 1.2 mi West 5.8 mph - N/A Snow Light Snow
8:14 AM 24.8 °F 19.1 °F 24.8 °F 100% 29.71 in 1.0 mi West 4.6 mph - N/A Snow Light Snow
8:17 AM 24.8 °F 19.1 °F 24.8 °F 100% 29.71 in 1.0 mi West 4.6 mph - N/A Snow Light Snow
8:18 AM 24.8 °F 19.1 °F 24.8 °F 100% 29.71 in 1.2 mi West 4.6 mph - N/A Snow Light Snow
8:21 AM 24.8 °F 20.5 °F 24.8 °F 100% 29.71 in 1.2 mi Variable 3.5 mph - N/A Snow Light Snow
8:28 AM 24.8 °F 19.1 °F 24.8 °F 100% 29.71 in 1.5 mi Variable 4.6 mph - N/A Snow Light Snow
8:30 AM 24.8 °F 20.5 °F 24.8 °F 100% 29.71 in 1.8 mi Variable 3.5 mph - N/A Snow Light Snow
8:32 AM 24.8 °F 19.1 °F 24.8 °F 100% 29.71 in 2.0 mi WNW 4.6 mph - N/A Snow Light Snow
8:33 AM 24.8 °F 16.9 °F 24.8 °F 100% 29.71 in 2.5 mi WNW 6.9 mph - N/A Snow Light Snow
8:35 AM 24.8 °F 16.1 °F 24.8 °F 100% 29.71 in 3.0 mi WNW 8.1 mph - N/A Snow Light Snow
8:43 AM 24.8 °F 19.1 °F 24.8 °F 100% 29.71 in 4.0 mi Variable 4.6 mph - N/A Snow Light Snow
8:51 AM 24.8 °F 19.1 °F 24.8 °F 100% 29.72 in 6.0 mi NW 4.6 mph - N/A Snow Light Snow
8:55 AM 24.4 °F 16.5 °F 23.9 °F 98% 29.72 in 9.0 mi NW 6.9 mph - 0.00 in Snow Light Snow
9:01 AM 24.8 °F 19.1 °F 23.0 °F 93% 29.72 in 4.0 mi Variable 4.6 mph - N/A Snow Light Snow
9:04 AM 24.8 °F 19.1 °F 23.0 °F 93% 29.72 in 2.5 mi Variable 4.6 mph - N/A Snow Light Snow
9:07 AM 24.8 °F 15.3 °F 23.0 °F 93% 29.72 in 2.0 mi North 9.2 mph - N/A Snow Light Snow
9:10 AM 23.0 °F 13.1 °F 23.0 °F 100% 29.72 in 2.5 mi North 9.2 mph - N/A Snow Light Snow
9:12 AM 23.0 °F 15.8 °F 21.2 °F 93% 29.73 in 3.0 mi North 5.8 mph - N/A Snow Light Snow
9:18 AM 23.0 °F 13.1 °F 21.2 °F 93% 29.73 in 6.0 mi North 9.2 mph - N/A Snow Light Snow
9:20 AM 23.0 °F 13.9 °F 21.2 °F 93% 29.73 in 8.0 mi North 8.1 mph - N/A Snow Light Snow
9:21 AM 23.0 °F 13.9 °F 21.2 °F 93% 29.73 in 9.0 mi North 8.1 mph - N/A Snow Light Snow
9:27 AM 23.0 °F 15.8 °F 21.2 °F 93% 29.73 in 10.0 mi North 5.8 mph - N/A Snow Light Snow
9:28 AM 23.0 °F 15.8 °F 21.2 °F 93% 29.73 in 10.0 mi NNW 5.8 mph - N/A Snow Light Snow
9:30 AM 23.0 °F 17.0 °F 21.2 °F 93% 29.73 in 10.0 mi NNW 4.6 mph - N/A Snow Light Snow
9:31 AM 23.0 °F 17.0 °F 21.2 °F 93% 29.73 in 10.0 mi North 4.6 mph - N/A Snow Light Snow
9:34 AM 23.0 °F 14.7 °F 21.2 °F 93% 29.73 in 10.0 mi NNW 6.9 mph - N/A Snow Light Snow
9:37 AM 23.0 °F 17.0 °F 21.2 °F 93% 29.73 in 10.0 mi NNW 4.6 mph - N/A Snow Light Snow
9:40 AM 23.0 °F 15.8 °F 21.2 °F 93% 29.73 in 10.0 mi NW 5.8 mph - N/A Snow Light Snow
9:50 AM 23.0 °F 17.0 °F 21.2 °F 93% 29.73 in 10.0 mi North 4.6 mph - N/A Snow Light Snow
9:54 AM 23.0 °F 15.8 °F 21.2 °F 93% 29.73 in 10.0 mi NNW 5.8 mph - N/A Snow Light Snow
9:55 AM 23.5 °F 16.4 °F 20.5 °F 88% 29.73 in 9.0 mi NNW 5.8 mph - 0.00 in Snow Light Snow
9:58 AM 23.0 °F 14.7 °F 21.2 °F 93% 29.73 in 8.0 mi NNW 6.9 mph - N/A Snow Light Snow
9:59 AM 23.0 °F 15.8 °F 21.2 °F 93% 29.73 in 8.0 mi NNW 5.8 mph - N/A Snow Light Snow
10:19 AM 24.8 °F 19.1 °F 21.2 °F 86% 29.73 in 6.0 mi North 4.6 mph - N/A Snow Light Snow
10:28 AM 24.8 °F 20.5 °F 21.2 °F 86% 29.73 in 6.0 mi WNW 3.5 mph - N/A Snow Light Snow
10:40 AM 24.8 °F 17.9 °F 21.2 °F 86% 29.73 in 8.0 mi NW 5.8 mph - N/A Snow Light Snow
10:55 AM 25.2 °F 19.5 °F 21.4 °F 86% 29.73 in 9.0 mi Variable 4.6 mph - 0.00 in Snow Light Snow
10:56 AM 24.8 °F 20.5 °F 21.2 °F 86% 29.73 in 9.0 mi Variable 3.5 mph - N/A Snow Light Snow
11:08 AM 26.6 °F 19.1 °F 21.2 °F 80% 29.73 in 10.0 mi NW 6.9 mph - N/A   Overcast
11:11 AM 26.6 °F 18.2 °F 21.2 °F 80% 29.73 in 10.0 mi NNW 8.1 mph - N/A Snow Light Snow
11:14 AM 24.8 °F 19.1 °F 21.2 °F 86% 29.73 in 10.0 mi Variable 4.6 mph - N/A   Overcast
11:18 AM 24.8 °F 20.5 °F 21.2 °F 86% 29.73 in 10.0 mi Variable 3.5 mph - N/A   Overcast
11:21 AM 24.8 °F 19.1 °F 19.4 °F 80% 29.73 in 10.0 mi Variable 4.6 mph - N/A   Overcast
11:51 AM 26.6 °F 20.0 °F 21.2 °F 80% 29.75 in 10.0 mi Variable 5.8 mph - N/A   Overcast
11:55 AM 25.9 °F 18.2 °F 20.5 °F 80% 29.75 in 10.0 mi NNW 6.9 mph - 0.00 in   Overcast
12:00 PM 24.8 °F 16.9 °F 19.4 °F 80% 29.75 in 10.0 mi NNW 6.9 mph - N/A   Overcast
12:29 PM 26.6 °F 18.2 °F 19.4 °F 74% 29.75 in 9.0 mi NW 8.1 mph - N/A Snow Light Snow
12:55 PM 26.6 °F 18.2 °F 20.3 °F 77% 29.75 in 10.0 mi WNW 8.1 mph - 0.00 in   Overcast
1:10 PM 26.6 °F 20.0 °F 21.2 °F 80% 29.75 in 10.0 mi West 5.8 mph - N/A Snow Light Snow
1:41 PM 26.6 °F 16.8 °F 19.4 °F 74% 29.75 in 10.0 mi West 10.4 mph - N/A   Overcast
1:43 PM 26.6 °F 16.8 °F 19.4 °F 74% 29.75 in 10.0 mi West 10.4 mph - N/A Snow Light Snow
1:44 PM 26.6 °F 17.5 °F 19.4 °F 74% 29.75 in 10.0 mi WSW 9.2 mph - N/A   Overcast
1:46 PM 26.6 °F 16.8 °F 19.4 °F 74% 29.75 in 10.0 mi West 10.4 mph - N/A   Overcast
1:48 PM 26.6 °F 15.2 °F 19.4 °F 74% 29.75 in 10.0 mi West 13.8 mph 18.4 mph N/A Snow Light Snow
1:55 PM 26.8 °F 17.1 °F 19.6 °F 74% 29.75 in 10.0 mi WNW 10.4 mph 18.4 mph 0.01 in   Overcast
2:04 PM 26.6 °F 15.7 °F 19.4 °F 74% 29.75 in 10.0 mi WSW 12.7 mph 19.6 mph N/A   Overcast
2:05 PM 26.6 °F 15.7 °F 19.4 °F 74% 29.75 in 10.0 mi West 12.7 mph 19.6 mph N/A   Overcast
2:14 PM 26.6 °F 15.2 °F 17.6 °F 69% 29.76 in 10.0 mi WSW 13.8 mph - N/A   Overcast
2:18 PM 26.6 °F 17.5 °F 17.6 °F 69% 29.76 in 10.0 mi West 9.2 mph - N/A   Overcast
2:42 PM 28.4 °F 16.6 °F 15.8 °F 59% 29.76 in 10.0 mi West 16.1 mph 21.9 mph N/A   Overcast
2:55 PM 27.9 °F 16.8 °F 14.9 °F 58% 29.76 in 10.0 mi West 13.8 mph 21.9 mph 0.00 in   Overcast
3:55 PM 27.5 °F 16.8 °F 16.3 °F 63% 29.77 in 10.0 mi West 12.7 mph 21.9 mph 0.01 in   Overcast
4:24 PM 26.6 °F 15.2 °F 17.6 °F 69% 29.78 in 10.0 mi West 13.8 mph 20.7 mph N/A   Overcast
4:25 PM 26.6 °F 14.7 °F 17.6 °F 69% 29.78 in 10.0 mi West 15.0 mph - N/A   Overcast
4:55 PM 27.9 °F 17.8 °F 17.6 °F 65% 29.78 in 10.0 mi West 11.5 mph 21.9 mph N/A   Overcast
5:07 PM 26.6 °F 14.7 °F 17.6 °F 69% 29.78 in 10.0 mi WSW 15.0 mph 20.7 mph N/A   Overcast
5:09 PM 26.6 °F 15.2 °F 17.6 °F 69% 29.78 in 10.0 mi SW 13.8 mph 20.7 mph N/A   Overcast
5:15 PM 26.6 °F 15.2 °F 17.6 °F 69% 29.78 in 10.0 mi SW 13.8 mph - N/A   Overcast
5:19 PM 26.6 °F 15.2 °F 17.6 °F 69% 29.78 in 10.0 mi SW 13.8 mph - N/A   Overcast
5:55 PM 27.5 °F 18.6 °F 19.6 °F 72% 29.78 in 10.0 mi WSW 9.2 mph 19.6 mph N/A   Overcast
6:24 PM 28.4 °F 19.7 °F 19.4 °F 69% 29.79 in 10.0 mi WSW 9.2 mph 18.4 mph N/A   Mostly Cloudy
6:26 PM 28.4 °F 19.7 °F 19.4 °F 69% 29.79 in 10.0 mi WSW 9.2 mph 18.4 mph N/A   Mostly Cloudy
6:29 PM 28.4 °F 18.5 °F 19.4 °F 69% 29.79 in 10.0 mi WSW 11.5 mph - N/A   Mostly Cloudy
6:35 PM 28.4 °F 19.1 °F 19.4 °F 69% 29.79 in 10.0 mi West 10.4 mph - N/A   Mostly Cloudy
6:44 PM 28.4 °F 19.7 °F 19.4 °F 69% 29.79 in 10.0 mi WSW 9.2 mph - N/A   Overcast
6:53 PM 28.4 °F 19.7 °F 19.4 °F 69% 29.79 in 10.0 mi WSW 9.2 mph 18.4 mph N/A   Mostly Cloudy
6:55 PM 28.0 °F 20.0 °F 20.1 °F 72% 29.79 in 10.0 mi WSW 8.1 mph 18.4 mph N/A   Mostly Cloudy
7:55 PM 28.2 °F 21.0 °F 21.9 °F 77% 29.81 in 10.0 mi WSW 6.9 mph - N/A   Mostly Cloudy
8:55 PM 28.9 °F 20.4 °F 23.2 °F 79% 29.82 in 10.0 mi West 9.2 mph - N/A   Overcast
9:55 PM 29.7 °F 20.1 °F 23.9 °F 79% 29.82 in 10.0 mi West 11.5 mph 21.9 mph N/A   Overcast
10:55 PM 29.1 °F 19.4 °F 23.7 °F 80% 29.83 in 10.0 mi West 11.5 mph 16.1 mph N/A   Overcast
11:09 PM 28.4 °F 19.7 °F 23.0 °F 80% 29.83 in 10.0 mi West 9.2 mph - N/A   Overcast
11:28 PM 28.4 °F 21.2 °F 24.8 °F 86% 29.83 in 7.0 mi West 6.9 mph - N/A Snow Light Snow
11:46 PM 28.4 °F 22.2 °F 24.8 °F 86% 29.83 in 6.0 mi West 5.8 mph - N/A Snow Light Snow
11:51 PM 28.4 °F 20.4 °F 24.8 °F 86% 29.83 in 3.0 mi West 8.1 mph - N/A Snow Light Snow
11:52 PM 28.4 °F 19.7 °F 24.8 °F 86% 29.83 in 3.0 mi West 9.2 mph - N/A Snow Light Snow
11:54 PM 28.4 °F 21.2 °F 24.8 °F 86% 29.83 in 2.5 mi West 6.9 mph - N/A Snow Light Snow
11:55 PM 27.9 °F 19.1 °F 25.0 °F 89% 29.83 in 2.5 mi West 9.2 mph - 0.00 in Snow Light Snow
11:59 PM 28.4 °F 21.2 °F 24.8 °F 86% 29.83 in 2.5 mi West 6.9 mph - N/A Snow Light Snow